Anoka County, MN

11:04 PM CST on December 13, 2019 (GMT -0600)
Anoka County / Blaine Airport

Weather History for KANE - July, 2019

Change the Weather History Date:

Tuesday, July 30, 2019

  Actual Average Record
Temperature  
Mean Temperature 64 °F -  
Max Temperature 73 °F 79 °F 96 °F (1999)
Min Temperature 55 °F 60 °F 53 °F (2004)
Degree Days  
Heating Degree Days 1    
Growing Degree Days 14 (Base 50)    
Moisture  
Dew Point 53 °F    
Average Humidity 74    
Maximum Humidity 94    
Minimum Humidity 43    
Precipitation  
Precipitation 0.02 in - - ()
Sea Level Pressure  
Sea Level Pressure 30.11 in    
Wind  
Wind Speed 4 mph (NNW)    
Max Wind Speed 9 mph    
Max Gust Speed -    
Visibility 10 miles    
Events      
Averages and records for this station are not official NWS values.
T = Trace of Precipitation, MM = Missing Value Source: NWS Daily Summary

Daily Weather History Graph

Daily Weather History Graph

Search for Another Location

Airport or City:

Astronomy

Jul. 30, 2019 Rise Set
Actual Time 5:55 AM CDT 8:42 PM CDT
Civil Twilight 5:21 AM CDT 9:16 PM CDT
Nautical Twilight 4:37 AM CDT 9:59 PM CDT
Astronomical Twilight 3:47 AM CDT 10:49 PM CDT
Moon 4:00 AM CDT (7/30) 7:51 PM CDT (7/30)
Length of Visible Light 15h 55m
Length of Day
14h 47m
Waning Crescent, 3% of the Moon is Illuminated
Jul 30
Waning Crescent
Jul 31
New
Aug 7
First Quarter
Aug 15
Full
Aug 23
Last Quarter

Hourly Weather History & Observations

Time (CDT) Temp. Dew Point Humidity Pressure Visibility Wind Dir Wind Speed Gust Speed Precip Events Conditions
12:16 AM 62.6 °F 53.6 °F 72% 30.04 in 10.0 mi NW 4.6 mph - N/A   Clear
12:35 AM 60.8 °F 53.6 °F 77% 30.05 in 10.0 mi NW 4.6 mph - N/A   Clear
12:58 AM 60.8 °F 53.6 °F 77% 30.06 in 10.0 mi NW 5.8 mph - N/A   Clear
1:17 AM 60.8 °F 53.6 °F 77% 30.06 in 10.0 mi NW 3.5 mph - N/A   Clear
1:36 AM 60.8 °F 53.6 °F 77% 30.07 in 10.0 mi NW 4.6 mph - N/A   Scattered Clouds
1:56 AM 60.8 °F 53.6 °F 77% 30.07 in 10.0 mi Calm Calm - N/A   Mostly Cloudy
2:15 AM 60.8 °F 53.6 °F 77% 30.06 in 10.0 mi NNW 3.5 mph - N/A   Scattered Clouds
2:20 AM 59.0 °F 53.6 °F 82% 30.07 in 10.0 mi Calm Calm - N/A   Scattered Clouds
2:37 AM 59.0 °F 53.6 °F 82% 30.07 in 10.0 mi WNW 3.5 mph - N/A   Clear
2:55 AM 57.2 °F 53.6 °F 88% 30.08 in 10.0 mi NW 3.5 mph - N/A   Clear
3:16 AM 57.2 °F 53.6 °F 88% 30.08 in 10.0 mi Calm Calm - N/A   Clear
3:36 AM 57.2 °F 53.6 °F 88% 30.08 in 10.0 mi Calm Calm - N/A   Clear
3:59 AM 57.2 °F 53.6 °F 88% 30.09 in 10.0 mi NW 4.6 mph - N/A   Clear
4:16 AM 59.0 °F 53.6 °F 82% 30.10 in 10.0 mi NW 4.6 mph - N/A   Mostly Cloudy
4:36 AM 57.2 °F 53.6 °F 88% 30.09 in 10.0 mi NNW 3.5 mph - 0.01 in   Scattered Clouds
4:56 AM 57.2 °F 53.6 °F 88% 30.10 in 10.0 mi NNW 4.6 mph - N/A   Clear
5:15 AM 55.4 °F 51.8 °F 88% 30.10 in 10.0 mi North 4.6 mph - N/A   Clear
5:19 AM 55.4 °F 51.8 °F 88% 30.10 in 10.0 mi North 3.5 mph - N/A   Clear
5:38 AM 55.4 °F 51.8 °F 88% 30.11 in 10.0 mi Calm Calm - N/A   Clear
5:55 AM 55.4 °F 51.8 °F 88% 30.12 in 10.0 mi North 3.5 mph - N/A   Clear
6:16 AM 55.4 °F 51.8 °F 88% 30.12 in 10.0 mi NNW 3.5 mph - N/A   Clear
6:36 AM 55.4 °F 53.6 °F 94% 30.12 in 10.0 mi North 5.8 mph - N/A   Clear
6:50 AM 55.4 °F 53.6 °F 94% 30.13 in 10.0 mi North 6.9 mph - N/A   Clear
6:58 AM 57.2 °F 53.6 °F 88% 30.13 in 10.0 mi North 5.8 mph - N/A   Clear
7:47 AM 60.8 °F 51.8 °F 72% 30.14 in 10.0 mi North 4.6 mph - N/A   Clear
8:45 AM 64.4 °F 51.8 °F 64% 30.16 in 10.0 mi NE 5.8 mph - N/A   Clear
9:45 AM 66.2 °F 50.0 °F 56% 30.16 in 10.0 mi ENE 9.2 mph - N/A   Clear
10:45 AM 68.0 °F 48.2 °F 49% 30.15 in 10.0 mi NNE 9.2 mph - N/A   Partly Cloudy
11:45 AM 69.8 °F 48.2 °F 46% 30.16 in 10.0 mi NNE 8.1 mph - N/A   Partly Cloudy
12:45 PM 69.8 °F 48.2 °F 46% 30.16 in 10.0 mi North 4.6 mph - N/A   Partly Cloudy
1:45 PM 71.6 °F 48.2 °F 43% 30.14 in 10.0 mi North 4.6 mph - N/A   Partly Cloudy
2:45 PM 73.4 °F 50.0 °F 44% 30.12 in 10.0 mi NNW 4.6 mph - N/A   Partly Cloudy
3:45 PM 73.4 °F 50.0 °F 44% 30.12 in 10.0 mi Calm Calm - N/A   Partly Cloudy
4:45 PM 73.4 °F 51.8 °F 47% 30.11 in 10.0 mi Calm Calm - N/A   Partly Cloudy
6:45 PM 73.4 °F 50.0 °F 44% 30.10 in 10.0 mi Variable 4.6 mph - N/A   Clear
7:45 PM 71.6 °F 51.8 °F 50% 30.11 in 10.0 mi Variable 4.6 mph - N/A   Clear
8:45 PM 68.0 °F 55.4 °F 64% 30.11 in 10.0 mi Variable 3.5 mph - N/A   Clear
9:45 PM 64.4 °F 55.4 °F 73% 30.13 in 10.0 mi Calm Calm - N/A   Clear
10:16 PM 62.6 °F 55.4 °F 77% 30.14 in 10.0 mi Calm Calm - N/A   Clear
10:36 PM 64.4 °F 55.4 °F 73% 30.14 in 10.0 mi Calm Calm - N/A   Clear
10:55 PM 60.8 °F 55.4 °F 82% 30.14 in 10.0 mi Calm Calm - N/A   Clear
11:15 PM 60.8 °F 55.4 °F 82% 30.14 in 10.0 mi Calm Calm - N/A   Clear
11:19 PM 60.8 °F 55.4 °F 82% 30.14 in 10.0 mi Calm Calm - N/A   Clear
11:37 PM 60.8 °F 55.4 °F 82% 30.15 in 10.0 mi Calm Calm - 0.01 in   Clear
11:55 PM 59.0 °F 57.2 °F 94% 30.15 in 10.0 mi Calm Calm - 0.01 in   Clear